Total_Precipitation_Accumulation
0.11 0.05 0.05 0.05 0.05 0.09 0.17 0.16 0.09 0.03 0.08 0.26 0.20 0.12 0.05 0.04 0.01 0.00 0.00 0.01 0.02 0.03 0.05 0.06 0.04 0.01 0.00 0.00 0.00 0.00 0.00 0.00 0.00 0.00 0.00 0.00 0.00 0.00 0.00 0.00 0.00 0.00 0.00 0.00
0.22 0.15 0.11 0.10 0.12 0.20 0.28 0.29 0.17 0.03 0.07 0.25 0.20 0.12 0.05 0.03 0.03 0.03 0.05 0.05 0.04 0.03 0.05 0.08 0.02 0.01 0.00 0.00 0.00 0.00 0.00 0.00 0.01 0.00 0.00 0.00 0.00 0.00 0.00 0.00 0.00 0.01 0.00 0.00
0.17 0.18 0.14 0.10 0.13 0.23 0.46 0.47 0.27 0.17 0.14 0.09 0.09 0.11 0.09 0.05 0.04 0.06 0.08 0.08 0.05 0.07 0.07 0.05 0.07 0.04 0.00 0.00 0.00 0.00 0.02 0.05 0.01 0.00 0.00 0.00 0.00 0.00 0.00 0.00 0.03 0.01 0.00 0.00
0.18 0.14 0.11 0.09 0.09 0.20 0.51 0.55 0.34 0.11 0.08 0.07 0.07 0.09 0.11 0.06 0.05 0.04 0.03 0.04 0.02 0.03 0.08 0.10 0.11 0.10 0.07 0.05 0.03 0.05 0.10 0.12 0.01 0.00 0.00 0.00 0.00 0.00 0.00 0.01 0.01 0.05 0.01 0.00
0.15 0.18 0.17 0.12 0.09 0.20 0.58 0.45 0.33 0.20 0.11 0.03 0.05 0.09 0.08 0.05 0.04 0.05 0.06 0.09 0.07 0.10 0.11 0.06 0.02 0.03 0.04 0.02 0.01 0.04 0.09 0.16 0.05 0.02 0.00 0.00 0.00 0.00 0.01 0.02 0.01 0.01 0.00 0.00
0.06 0.10 0.13 0.12 0.12 0.27 0.34 0.23 0.18 0.31 0.33 0.16 0.12 0.06 0.02 0.00 0.01 0.08 0.06 0.01 0.02 0.04 0.02 0.01 0.02 0.04 0.05 0.06 0.04 0.06 0.12 0.11 0.07 0.03 0.00 0.00 0.01 0.00 0.00 0.00 0.00 0.00 0.00 0.00
0.07 0.07 0.09 0.12 0.12 0.22 0.31 0.21 0.21 0.38 0.53 0.28 0.12 0.02 0.01 0.01 0.00 0.01 0.01 0.00 0.02 0.01 0.00 0.01 0.00 0.00 0.00 0.02 0.02 0.03 0.12 0.17 0.25 0.12 0.06 0.08 0.00 0.00 0.00 0.00 0.00 0.00 0.00 0.00
0.07 0.08 0.09 0.10 0.12 0.17 0.30 0.33 0.44 0.55 0.48 0.19 0.09 0.06 0.07 0.06 0.04 0.07 0.05 0.01 0.00 0.00 0.01 0.05 0.06 0.02 0.00 0.00 0.00 0.00 0.01 0.10 0.28 0.25 0.15 0.04 0.00 0.00 0.00 0.00 0.00 0.00 0.00 0.00
0.08 0.10 0.14 0.13 0.14 0.18 0.30 0.29 0.35 0.84 0.94 0.36 0.05 0.06 0.04 0.07 0.08 0.08 0.06 0.02 0.03 0.06 0.10 0.17 0.13 0.02 0.00 0.00 0.00 0.00 0.01 0.06 0.29 0.37 0.26 0.06 0.00 0.00 0.00 0.00 0.01 0.00 0.00 0.00
0.07 0.07 0.09 0.15 0.17 0.17 0.31 0.34 0.22 0.65 1.08 0.47 0.06 0.15 0.10 0.03 0.04 0.12 0.05 0.02 0.05 0.13 0.30 0.42 0.23 0.07 0.00 0.00 0.00 0.00 0.01 0.06 0.20 0.24 0.40 0.21 0.01 0.00 0.01 0.06 0.02 0.00 0.00 0.00
0.06 0.06 0.08 0.12 0.18 0.23 0.38 0.34 0.16 0.43 0.82 0.42 0.09 0.09 0.14 0.10 0.06 0.12 0.09 0.21 0.31 0.35 0.53 0.44 0.29 0.18 0.03 0.02 0.00 0.00 0.00 0.02 0.05 0.08 0.19 0.11 0.00 0.00 0.00 0.00 0.00 0.00 0.00 0.00
0.05 0.05 0.06 0.09 0.17 0.34 0.67 0.65 0.23 0.29 0.76 0.71 0.13 0.03 0.04 0.09 0.15 0.22 0.30 0.22 0.11 0.21 0.33 0.32 0.27 0.31 0.20 0.06 0.02 0.00 0.00 0.01 0.00 0.00 0.01 0.00 0.00 0.00 0.00 0.00 0.00 0.00 0.00 0.00
0.05 0.03 0.04 0.07 0.12 0.21 0.47 0.54 0.44 0.62 0.93 0.66 0.28 0.07 0.01 0.02 0.06 0.15 0.44 0.48 0.22 0.26 0.22 0.31 0.36 0.37 0.19 0.16 0.09 0.01 0.00 0.00 0.00 0.00 0.00 0.00 0.00 0.00 0.00 0.00 0.00 0.00 0.00 0.00
0.07 0.07 0.06 0.06 0.08 0.18 0.38 0.53 0.37 0.54 0.81 0.72 0.25 0.05 0.02 0.02 0.04 0.10 0.20 0.24 0.20 0.22 0.35 0.54 0.55 0.35 0.15 0.06 0.02 0.00 0.00 0.00 0.00 0.00 0.00 0.00 0.00 0.00 0.00 0.00 0.00 0.00 0.00 0.00
0.08 0.09 0.09 0.06 0.09 0.19 0.29 0.33 0.38 0.37 0.72 0.70 0.24 0.09 0.04 0.03 0.06 0.11 0.20 0.29 0.39 0.46 0.48 0.52 0.33 0.15 0.13 0.12 0.06 0.01 0.00 0.00 0.00 0.00 0.00 0.00 0.00 0.00 0.00 0.00 0.00 0.00 0.00 0.00
0.06 0.05 0.05 0.07 0.12 0.30 0.29 0.25 0.12 0.12 0.33 0.75 0.36 0.08 0.01 0.00 0.02 0.09 0.17 0.33 0.41 0.44 0.44 0.34 0.20 0.06 0.03 0.17 0.08 0.00 0.00 0.00 0.00 0.00 0.00 0.00 0.00 0.00 0.00 0.00 0.00 0.00 0.00 0.00
0.05 0.04 0.04 0.07 0.18 0.42 0.42 0.26 0.09 0.05 0.16 0.49 0.40 0.20 0.07 0.03 0.03 0.08 0.11 0.16 0.23 0.28 0.34 0.29 0.19 0.08 0.14 0.23 0.04 0.00 0.00 0.00 0.00 0.00 0.00 0.00 0.00 0.00 0.00 0.00 0.00 0.00 0.00 0.00
0.09 0.11 0.13 0.16 0.37 0.50 0.34 0.21 0.19 0.25 0.54 0.69 0.56 0.22 0.06 0.06 0.05 0.06 0.08 0.11 0.14 0.20 0.20 0.13 0.05 0.05 0.12 0.07 0.00 0.00 0.00 0.00 0.00 0.00 0.00 0.00 0.00 0.00 0.00 0.00 0.00 0.00 0.00 0.00
0.26 0.32 0.40 0.54 0.48 0.33 0.28 0.17 0.12 0.24 0.60 0.83 0.48 0.16 0.07 0.04 0.05 0.05 0.07 0.08 0.11 0.11 0.07 0.03 0.02 0.04 0.02 0.00 0.00 0.00 0.00 0.00 0.00 0.00 0.00 0.00 0.00 0.00 0.00 0.00 0.00 0.00 0.00 0.00
0.49 0.91 0.98 0.76 0.50 0.30 0.20 0.23 0.34 0.44 0.47 0.34 0.18 0.07 0.10 0.06 0.05 0.08 0.06 0.09 0.08 0.09 0.02 0.02 0.05 0.01 0.00 0.00 0.00 0.00 0.00 0.00 0.00 0.00 0.00 0.00 0.00 0.00 0.00 0.00 0.00 0.00 0.00 0.00
0.70 0.85 0.55 0.37 0.27 0.19 0.24 0.27 0.24 0.25 0.21 0.14 0.10 0.06 0.08 0.09 0.08 0.09 0.11 0.11 0.06 0.04 0.01 0.01 0.01 0.00 0.00 0.00 0.00 0.00 0.00 0.00 0.00 0.00 0.00 0.00 0.00 0.00 0.00 0.00 0.00 0.00 0.00 0.00
0.09 0.05 0.09 0.08 0.10 0.13 0.16 0.18 0.11 0.06 0.03 0.03 0.03 0.06 0.07 0.14 0.10 0.11 0.14 0.06 0.05 0.02 0.00 0.01 0.00 0.00 0.00 0.00 0.00 0.00 0.00 0.00 0.00 0.00 0.00 0.00 0.00 0.00 0.00 0.00 0.00 0.00 0.00 0.00
0.03 0.07 0.11 0.08 0.06 0.08 0.05 0.03 0.01 0.01 0.01 0.02 0.03 0.06 0.07 0.09 0.09 0.11 0.10 0.09 0.07 0.01 0.00 0.00 0.00 0.00 0.00 0.00 0.00 0.00 0.00 0.00 0.00 0.00 0.00 0.00 0.00 0.00 0.00 0.00 0.00 0.00 0.00 0.00
0.02 0.02 0.02 0.04 0.05 0.00 0.00 0.00 0.00 0.01 0.00 0.01 0.04 0.08 0.08 0.07 0.07 0.09 0.07 0.06 0.02 0.01 0.00 0.00 0.00 0.00 0.00 0.00 0.00 0.00 0.00 0.00 0.00 0.00 0.00 0.00 0.00 0.00 0.00 0.00 0.00 0.00 0.00 0.00
0.01 0.00 0.02 0.01 0.01 0.01 0.01 0.01 0.03 0.04 0.05 0.07 0.07 0.07 0.06 0.05 0.07 0.04 0.02 0.02 0.01 0.00 0.00 0.00 0.00 0.00 0.00 0.00 0.00 0.00 0.00 0.00 0.00 0.00 0.00 0.00 0.00 0.00 0.00 0.00 0.00 0.00 0.00 0.00
0.00 0.01 0.00 0.01 0.01 0.03 0.02 0.02 0.04 0.05 0.05 0.03 0.01 0.01 0.01 0.02 0.01 0.01 0.00 0.00 0.00 0.00 0.00 0.01 0.01 0.00 0.00 0.00 0.00 0.00 0.00 0.00 0.00 0.00 0.00 0.00 0.00 0.00 0.00 0.00 0.00 0.00 0.00 0.00
0.00 0.02 0.02 0.01 0.00 0.02 0.03 0.03 0.03 0.01 0.01 0.00 0.00 0.00 0.00 0.00 0.00 0.00 0.00 0.00 0.00 0.01 0.01 0.01 0.00 0.00 0.00 0.00 0.00 0.00 0.00 0.00 0.00 0.00 0.00 0.00 0.00 0.00 0.00 0.00 0.00 0.00 0.00 0.00